Вернуться в каталог

SES 3

АктивенСвязьGEO
NORAD 37748·PAYLOAD·🇺🇸 United States

Запущен Jul 15, 2011 с Baikonur Cosmodrome

Loading…

TLE

СвежийSource: CelesTrak SupGP

Эпоха: Sep 14, 2026, 23:44 UTC

1 37748C 11035A   26257.98958333 -.00000012  00000+0  00000+0 0  2578
2 37748   1.5525  81.9403 0002332 100.7312  64.5513  1.00271872    11

Отслеживайте SES 3 в реальном времени с AllMySat

Download on the App Store